Terug naar catalogus

STARLINK-35504

ActiefCommunicatieVLEO
NORAD 66325·PAYLOAD·🇺🇸 United States

Gelanceerd Nov 6, 2025 vanaf Cape Canaveral Space Force Station

Loading…

Volgende Passages (komende 24 uur)

TLE

VersSource: CelesTrak SupGP

Epoch: Sep 15, 2026, 03:45 UTC

1 66325C 25253G   26258.15673611 -.00040674  00000+0 -14734-2 0  2583
2 66325  42.9993 222.8768 0000939 270.1157 197.6588 15.27595347    12

Volg STARLINK-35504 in realtime met AllMySat

Download on the App Store